EHI
0 0 0 0 0 0 0 0 0 0 2 4 6 7 10 13 14 13 14 17 19 19 19 18 16 15 15 16 18 19 18 14 12 11 10 9 9 10 12 12 12 12 13 13
0 0 0 0 0 0 0 0 0 0 2 6 7 7 9 11 13 13 14 15 17 20 20 19 17 16 17 19 21 23 21 17 15 14 12 12 11 10 11 12 13 14 14 14
0 0 0 0 0 0 0 0 0 0 3 6 8 8 8 8 10 12 12 12 15 18 20 20 18 17 19 23 25 26 24 21 20 19 17 15 14 13 13 14 16 17 18 17
0 0 0 0 1 0 0 0 0 1 3 6 8 10 9 6 7 10 10 10 13 17 19 20 19 18 19 22 24 25 24 21 20 21 21 18 17 17 17 17 18 19 20 20
0 0 0 0 1 1 0 0 1 2 4 6 8 8 8 7 7 9 9 11 14 16 17 18 18 17 17 17 18 19 19 18 17 19 20 20 20 19 18 19 18 18 19 19
0 0 0 0 1 1 0 1 3 4 6 7 6 5 7 8 8 9 11 11 12 14 15 16 16 14 13 13 13 13 12 12 13 15 17 19 19 19 19 17 16 16 17 17
0 0 0 1 1 2 2 5 8 8 7 6 4 5 8 10 10 10 10 9 9 11 13 14 13 12 12 12 12 12 10 10 11 12 15 16 18 20 20 18 16 14 14 15
0 0 1 1 2 4 6 9 11 11 9 6 5 6 9 10 9 8 8 7 8 11 12 11 11 13 14 14 13 12 11 11 12 13 14 15 17 20 20 19 16 13 12 12
0 0 1 2 4 7 8 9 11 12 11 10 7 6 8 10 9 7 7 7 9 11 12 11 13 15 15 14 12 11 12 13 14 14 13 14 15 17 18 18 14 11 9 7
1 1 2 3 6 8 8 8 10 12 12 11 7 6 8 10 10 9 9 9 10 11 11 13 15 16 15 12 11 11 13 15 15 14 13 11 11 14 15 13 10 9 7 5
3 4 4 5 7 8 7 7 8 10 10 8 6 6 9 11 12 11 11 10 9 9 10 13 15 15 14 11 11 12 12 13 12 11 10 9 9 10 11 9 8 7 5 4
5 6 7 7 7 7 6 6 6 8 8 6 6 7 10 12 12 11 10 9 8 8 10 12 14 14 12 11 10 11 10 9 7 6 7 7 7 7 7 6 5 4 3 2
4 6 8 9 8 6 5 5 7 9 8 6 7 10 11 12 12 11 10 9 8 8 10 11 12 12 12 10 9 8 7 5 4 5 7 8 7 6 5 4 3 2 1 1
2 4 7 8 8 8 7 7 10 11 9 9 10 11 12 13 12 13 11 9 9 10 10 11 11 12 11 9 7 6 4 4 5 7 9 9 8 6 4 3 3 2 1 1
1 2 4 6 8 9 9 10 12 13 12 11 11 11 12 13 13 14 14 12 11 11 11 11 11 11 9 6 4 4 4 5 6 8 7 6 5 4 3 3 3 3 3 2
1 2 3 5 6 8 9 10 11 12 12 11 10 9 11 11 12 13 14 14 12 11 11 11 10 9 6 5 4 4 5 5 5 5 4 2 2 2 2 3 3 3 3 3
3 3 4 5 6 7 8 9 10 11 10 9 7 7 9 10 11 12 13 13 11 10 10 10 8 6 5 5 6 6 6 5 4 2 1 0 1 2 3 3 3 3 3 3
3 4 5 5 5 6 8 9 9 9 7 6 5 5 7 9 9 9 11 12 10 9 8 6 4 4 4 6 6 6 6 5 4 2 1 1 2 3 3 3 3 3 3 2
3 4 5 5 5 6 8 9 8 6 5 5 5 5 6 7 7 8 10 11 11 9 7 4 3 3 4 5 6 6 5 4 4 3 2 3 3 3 3 3 2 2 1 1
3 4 5 5 4 4 5 6 6 5 5 5 4 4 4 5 5 6 8 10 11 10 8 4 2 2 3 3 4 4 4 3 3 3 3 3 2 2 2 1 1 1 0 0
3 3 4 4 3 2 2 4 6 5 4 4 4 3 4 5 4 4 5 7 8 8 6 3 1 1 1 1 2 2 2 2 2 2 2 1 1 1 1 0 0 0 0 0
3 3 3 3 2 1 1 2 4 5 4 4 3 3 4 5 5 4 4 4 5 5 4 2 0 0 0 0 1 1 1 1 1 1 1 0 0 0 0 0 0 0 0 0
3 3 3 2 1 0 0 1 2 3 3 3 3 3 4 5 5 4 3 3 3 2 2 2 0 0 0 0 0 0 0 0 0 0 0 0 0 0 0 0 0 0 0 0
3 2 1 1 0 0 0 0 0 1 1 1 2 2 3 3 4 4 3 1 1 1 1 1 0 0 0 0 0 0 0 0 0 0 0 0 0 0 0 0 0 0 0 0
2 1 0 0 0 0 0 0 0 0 0 0 1 1 1 2 3 3 1 0 0 0 0 0 0 0 0 0 0 0 0 0 0 0 0 0 0 0 0 0 0 0 0 0
2 1 0 0 0 0 0 0 0 0 0 0 1 1 1 2 2 1 0 0 0 0 0 0 0 0 0 0 0 0 0 0 0 0 0 0 0 0 0 0 0 0 0 0
1 0 0 0 0 0 0 0 0 0 0 1 2 2 2 1 1 0 0 0 0 0 0 0 0 0 0 0 0 0 0 0 0 0 0 0 0 0 0 0 0 0 0 0
Wind_Speed
7 5 6 7 7 8 10 10 10 7 5 4 2 1 0 0 0 0 0 0 0 0 0 2 3 3 3 3 3 3 3 4 4 3 3 4 4 4 4 4 5 4 4 4
8 7 8 9 9 10 10 10 10 8 5 2 2 1 0 0 0 0 0 0 1 1 1 1 2 3 3 3 3 3 3 3 3 3 3 4 4 4 4 4 4 4 4 4
9 7 9 12 10 10 9 9 9 9 4 3 3 1 1 1 1 0 1 1 1 1 1 1 2 3 3 3 3 3 3 3 3 3 3 3 3 3 4 4 4 4 4 3
7 8 12 3 1 5 7 7 7 5 3 3 2 1 0 1 1 1 1 1 2 1 1 0 1 2 2 3 3 3 3 2 3 3 3 3 3 3 3 3 3 3 3 3
8 10 9 5 4 5 7 7 3 3 3 2 3 3 3 2 1 1 1 1 1 1 1 0 1 2 3 2 2 2 2 2 2 3 3 3 3 3 3 3 3 3 3 3
8 10 10 3 3 2 6 8 3 3 3 3 4 5 2 2 1 0 1 1 1 1 1 0 0 1 2 2 2 2 2 2 2 2 2 3 2 2 2 2 2 2 1 2
11 11 6 2 2 5 8 1 3 3 3 3 3 2 2 1 1 1 1 1 1 1 1 0 0 1 1 1 2 2 2 2 2 2 2 2 2 1 1 1 1 1 1 1
9 11 5 4 4 4 2 2 2 2 2 1 1 2 1 1 1 1 0 1 1 0 1 0 1 1 1 1 1 1 2 2 1 1 1 1 1 1 2 1 2 2 1 1
4 2 4 1 0 2 0 2 1 1 1 2 1 1 1 1 1 1 1 0 0 0 1 1 1 1 1 1 0 1 1 1 1 2 1 1 1 2 2 2 1 1 1 1
4 2 1 1 0 1 1 1 1 1 1 2 2 2 1 1 1 2 1 1 1 1 2 1 1 1 1 1 1 1 2 2 2 2 2 2 1 1 1 1 1 0 1 1
6 3 2 3 1 1 1 1 2 1 1 1 2 2 2 2 2 2 1 1 1 2 2 1 1 1 1 1 1 2 2 2 2 2 2 1 1 1 0 1 1 1 1 1
4 3 4 3 3 2 2 2 1 1 0 0 1 1 1 1 1 1 2 1 2 2 1 1 1 1 1 1 1 2 2 2 1 1 1 1 1 2 4 3 4 2 2 2
3 3 2 2 3 3 2 1 1 1 1 1 1 0 1 1 1 1 1 2 1 1 1 1 1 1 0 0 1 1 1 1 1 1 1 1 1 1 1 2 3 2 1 1
2 3 3 3 3 2 2 2 1 1 1 1 1 1 1 1 1 1 1 1 1 1 1 1 1 1 0 1 1 1 1 2 2 1 1 1 0 1 1 0 1 1 2 3
4 3 4 3 3 3 2 2 2 1 1 1 1 1 1 1 1 1 1 1 1 1 1 1 1 0 0 1 0 0 0 1 1 1 1 1 1 1 0 0 0 0 1 2
4 3 4 4 3 3 2 2 1 1 1 1 2 2 1 1 1 1 1 1 1 1 1 1 0 0 1 1 1 1 1 2 1 1 1 1 1 1 0 0 0 1 1 2
5 5 5 4 3 2 1 1 1 1 1 1 2 2 2 2 2 2 1 1 1 1 1 1 1 1 1 1 0 0 1 3 3 1 1 0 1 1 0 0 1 0 1 2
4 4 4 4 3 2 1 1 1 1 1 1 1 2 2 2 2 2 1 1 2 2 2 2 2 2 1 1 0 1 0 1 1 1 1 0 0 0 0 0 1 1 1 1
4 4 3 3 2 1 1 1 1 1 1 1 1 2 2 2 2 1 2 2 2 2 1 2 2 2 2 2 0 1 1 1 1 1 1 1 0 0 1 1 1 1 1 2
4 4 3 3 2 2 1 1 1 1 1 1 2 2 2 2 2 2 2 2 1 1 1 1 2 2 2 2 1 1 1 1 1 1 1 1 1 1 1 1 1 1 2 2
3 3 3 2 2 2 2 2 2 2 2 1 2 2 2 2 2 2 2 2 2 1 2 3 2 2 2 1 2 1 1 1 1 1 1 1 1 1 1 1 1 1 1 2
2 2 2 2 2 1 2 2 2 2 2 2 2 2 3 3 3 3 2 0 2 2 2 2 2 2 1 2 1 1 1 1 1 1 1 1 1 1 1 1 1 1 1 1
2 2 2 2 2 2 2 2 2 3 3 2 2 3 3 2 2 2 2 2 2 3 2 2 3 3 2 2 1 1 1 1 1 1 1 1 0 0 0 0 0 1 1 1
2 2 2 2 2 2 2 2 2 2 2 3 3 3 3 3 3 2 2 4 4 3 2 4 4 3 3 1 1 0 0 0 0 0 1 1 0 0 0 0 0 1 1 1
2 2 2 2 2 2 2 2 3 3 3 3 3 3 3 2 2 2 2 4 4 3 2 4 5 3 2 1 0 0 1 1 1 1 0 0 1 0 0 0 0 1 1 1
1 1 1 1 1 1 2 2 2 2 2 3 2 2 2 2 3 2 2 3 5 3 2 2 2 2 1 1 1 1 1 1 1 1 1 1 1 1 0 0 1 1 1 1
1 1 1 1 1 1 1 1 1 1 1 2 2 2 3 2 2 3 3 3 3 2 2 2 2 2 1 1 1 1 0 0 0 1 1 1 1 1 1 1 1 1 1 1
Wind_Direction
264 271 258 251 248 244 252 264 269 268 241 219 225 268 312 296 305 135 148 120 123 42 181 181 172 177 186 187 180 181 189 198 199 206 210 215 218 223 227 229 231 230 234 238
242 243 243 247 247 244 247 254 254 255 241 201 189 204 260 9 90 231 251 327 344 337 322 208 183 180 183 183 168 168 181 195 193 206 213 216 221 227 232 239 243 238 238 242
239 230 244 238 236 238 237 243 251 253 235 179 196 194 229 206 186 10 4 344 333 319 305 234 189 176 176 170 165 175 186 193 192 201 210 220 229 233 238 242 243 241 242 241
242 230 241 237 302 245 241 241 253 262 225 212 205 185 147 139 110 70 21 359 339 314 309 199 160 158 158 157 162 175 186 198 202 206 215 224 232 237 243 240 238 234 235 234
243 240 243 220 211 224 237 234 236 233 200 189 163 182 158 111 67 37 6 4 349 327 332 36 137 147 158 162 163 175 185 199 208 215 217 221 228 236 241 242 245 243 231 230
241 250 249 219 144 219 247 222 165 201 185 179 203 231 149 90 64 41 26 35 18 19 38 93 70 136 164 167 178 192 198 207 205 210 213 221 228 239 247 241 245 246 227 229
239 246 246 101 142 203 231 220 141 190 190 210 249 330 74 128 134 104 67 38 23 46 41 22 109 148 182 183 198 201 198 196 202 207 208 210 204 209 232 216 194 207 195 204
235 243 233 113 180 228 7 75 149 163 169 142 70 82 122 138 148 171 84 22 3 48 65 54 79 130 182 201 202 194 192 188 184 193 205 165 181 197 194 192 181 182 192 222
265 290 52 110 354 41 52 177 163 156 147 156 154 162 187 167 176 208 254 220 223 162 153 155 157 167 185 191 186 185 180 178 173 166 160 157 180 178 178 172 186 191 215 242
252 222 217 246 120 116 107 129 133 149 170 179 189 205 225 236 220 225 245 238 188 188 180 168 171 178 182 162 173 163 157 161 159 153 151 138 190 181 170 164 198 220 252 277
239 232 228 198 184 131 122 116 114 128 177 209 203 216 226 236 233 239 252 232 203 204 194 181 166 159 149 139 159 165 159 167 170 161 146 151 139 46 5 90 17 309 307 312
254 212 238 213 183 180 175 162 146 141 158 255 230 218 220 233 241 244 243 222 206 204 183 172 166 152 146 161 167 181 179 178 182 169 149 159 134 106 67 77 82 72 7 327
277 245 235 201 197 199 201 199 201 209 221 248 266 222 232 246 231 225 227 218 203 188 178 173 158 134 119 173 189 193 200 184 199 176 158 167 173 163 137 117 118 117 112 46
194 189 189 192 195 195 191 194 193 201 213 218 216 226 222 217 201 211 222 219 198 183 171 163 141 113 100 154 187 210 212 164 200 199 186 178 163 189 204 174 142 137 145 160
201 213 194 185 183 183 189 187 185 183 164 158 161 175 177 185 180 179 171 178 165 168 153 147 137 119 124 152 155 184 220 166 191 208 168 151 164 201 196 156 335 4 73 123
191 174 170 179 185 187 188 183 180 140 120 116 121 126 125 133 136 138 139 154 167 161 139 145 146 101 116 137 153 155 124 92 123 203 180 168 179 213 229 210 274 349 4 9
185 182 182 189 190 192 205 197 176 149 129 111 108 122 130 131 127 124 131 140 137 129 135 139 124 108 119 135 222 209 142 129 154 213 193 170 198 228 253 286 299 340 350 35
197 191 190 192 198 195 189 157 142 132 118 114 140 166 166 164 151 143 142 138 133 119 110 116 107 119 133 131 236 303 135 121 145 156 145 138 301 233 241 265 307 348 343 84
166 166 168 173 183 190 188 166 127 110 142 170 186 194 191 186 180 185 167 158 155 146 114 110 119 156 132 99 55 182 145 124 128 113 114 114 199 320 4 25 14 354 347 358
141 143 148 153 165 175 185 177 166 162 166 176 192 198 194 188 192 203 186 170 129 66 120 122 162 147 128 113 265 166 104 85 73 83 87 76 46 22 21 13 5 1 7 10
143 143 151 159 164 184 194 191 181 176 173 187 197 199 193 184 182 194 202 166 114 112 151 158 169 137 122 127 218 178 129 111 71 53 49 43 43 31 19 12 14 21 17 353
164 157 159 162 167 182 194 193 185 182 178 183 191 192 187 183 179 180 181 159 118 129 163 149 138 100 95 232 186 122 88 76 59 46 59 67 75 72 41 19 22 22 4 346
181 173 172 169 165 179 198 198 193 188 185 186 191 197 197 189 195 186 166 152 142 139 162 122 97 116 186 206 130 107 89 61 34 45 80 104 113 127 118 30 8 5 353 354
175 175 176 172 172 183 196 198 193 192 192 198 199 200 201 187 184 187 150 132 139 153 146 110 122 141 193 183 143 102 20 2 25 30 44 82 95 158 192 248 305 335 359 356
182 186 181 179 186 189 185 185 184 194 200 190 185 184 192 195 176 144 129 129 129 154 140 124 141 167 200 167 148 38 17 23 2 336 297 264 240 223 233 263 299 311 325 336
190 198 178 203 212 203 194 189 191 192 185 172 167 160 152 142 139 140 142 136 130 136 135 133 151 179 190 161 133 107 93 116 169 240 249 250 267 296 344 339 300 296 306 333
176 170 171 177 168 164 153 163 175 180 175 158 142 133 134 140 142 136 135 132 130 135 141 149 160 165 169 164 134 116 110 87 292 277 273 286 296 292 286 292 307 316 317 329